Weather History for KAYS - March, 2013

Change the Weather History Date:

Friday, March 22, 2013

  Actual Average (KAMG) Record (KAMG)
Temperature  
Mean Temperature 53 °F 61 °F  
Max Temperature 64 °F 74 °F 88 °F (2011)
Min Temperature 42 °F 49 °F 27 °F (1958)
Degree Days  
Heating Degree Days 12 5  
Month to date heating degree days 150  
Since 1 July heating degree days 1551  
Cooling Degree Days 0 1  
Month to date cooling degree days 22  
Year to date cooling degree days 38  
Growing Degree Days 3 (Base 50)    
Moisture  
Dew Point 36 °F    
Average Humidity 56    
Maximum Humidity 87    
Minimum Humidity 37    
Precipitation  
Precipitation 0.00 in 0.13 in 1.52 in (1970)
Month to date precipitation 3.48  
Year to date precipitation 11.54  
Snow  
Snow 0.00 in 0.00 in 0.00 in ()
Month to date snowfall 0.0  
Since 1 July snowfall 0.1  
Snow Depth -    
Sea Level Pressure  
Sea Level Pressure 30.02 in    
Wind  
Wind Speed 3 mph (East)    
Max Wind Speed 13 mph    
Max Gust Speed 17 mph    
Visibility 10 miles    
Events      
T = Trace of Precipitation, MM = Missing Value Source: NWS Daily Summary

Daily Weather History Graph

Daily Weather History Graph

Search for Another Location

Airport or City:

Trip Planner

Search our weather history database for the weather conditions in past years. The results will help you decide how hot, cold, wet, or windy it might be!

Date:

Astronomy

Mar. 22, 2013 Rise Set
Actual Time 7:30 AM EDT 7:42 PM EDT
Civil Twilight 7:06 AM EDT 8:06 PM EDT
Nautical Twilight 6:38 AM EDT 8:35 PM EDT
Astronomical Twilight 6:09 AM EDT 9:03 PM EDT
Moon 3:23 PM EDT (3/22) 4:13 AM EDT (3/22)
Length of Visible Light 13h 00m
Length of Day
12h 12m
Waxing Gibbous, 77% of the Moon is Illuminated
Mar 22
Waxing Gibbous
Mar 27
Full
Apr 3
Last Quarter
Apr 10
New
Apr 18
First Quarter

Hourly Weather History & Observations

Time (EDT) Temp. Windchill Dew Point Humidity Pressure Visibility Wind Dir Wind Speed Gust Speed Precip Events Conditions
12:15 AM 42.8 °F - 35.6 °F 76% 29.95 in 10.0 mi Calm Calm - N/A   Unknown
12:35 AM 42.8 °F - 37.4 °F 81% 29.95 in 10.0 mi Calm Calm - N/A   Unknown
12:55 AM 42.8 °F - 37.4 °F 81% 29.95 in 10.0 mi Calm Calm - N/A   Unknown
1:15 AM 42.8 °F - 39.2 °F 87% 29.95 in 10.0 mi Calm Calm - N/A   Unknown
1:35 AM 44.6 °F - 39.2 °F 81% 29.95 in 10.0 mi Calm Calm - N/A   Unknown
1:55 AM 44.6 °F - 39.2 °F 81% 29.96 in 10.0 mi Calm Calm - N/A   Unknown
2:15 AM 44.6 °F - 41.0 °F 87% 29.97 in 10.0 mi Calm Calm - N/A   Unknown
2:35 AM 44.6 °F - 39.2 °F 81% 29.97 in 10.0 mi Calm Calm - N/A   Unknown
2:55 AM 44.6 °F - 41.0 °F 87% 29.98 in 10.0 mi Calm Calm - N/A   Unknown
3:15 AM 44.6 °F - 41.0 °F 87% 29.97 in 10.0 mi Calm Calm - N/A   Unknown
3:35 AM 46.4 °F - 37.4 °F 71% 29.98 in 10.0 mi Calm Calm - N/A   Mostly Cloudy
3:55 AM 46.4 °F 44.3 °F 35.6 °F 66% 29.98 in 10.0 mi NNE 4.6 mph - N/A   Overcast
4:15 AM 46.4 °F 40.7 °F 33.8 °F 62% 29.97 in 10.0 mi NNE 12.7 mph - N/A   Overcast
4:35 AM 46.4 °F 41.9 °F 30.2 °F 53% 29.99 in 10.0 mi NNE 9.2 mph - N/A   Unknown
4:55 AM 46.4 °F 41.5 °F 28.4 °F 50% 29.99 in 10.0 mi NE 10.4 mph 17.3 mph N/A   Unknown
5:15 AM 46.4 °F 42.4 °F 26.6 °F 46% 30.00 in 10.0 mi NNE 8.1 mph - N/A   Unknown
5:35 AM 44.6 °F 42.2 °F 26.6 °F 49% 30.01 in 10.0 mi NE 4.6 mph - N/A   Unknown
5:55 AM 44.6 °F 42.2 °F 26.6 °F 49% 30.03 in 10.0 mi NNE 4.6 mph - N/A   Unknown
6:15 AM 44.6 °F 43.1 °F 24.8 °F 46% 30.02 in 10.0 mi NE 3.5 mph - N/A   Unknown
6:35 AM 42.8 °F - 24.8 °F 49% 30.03 in 10.0 mi Calm Calm - N/A   Unknown
6:55 AM 42.8 °F - 26.6 °F 53% 30.03 in 10.0 mi Calm Calm - N/A   Unknown
7:15 AM 42.8 °F - 28.4 °F 57% 30.03 in 10.0 mi Calm Calm - N/A   Unknown
7:35 AM 42.8 °F 41.1 °F 28.4 °F 57% 30.03 in 10.0 mi East 3.5 mph - N/A   Unknown
7:55 AM 44.6 °F 42.2 °F 28.4 °F 53% 30.03 in 10.0 mi East 4.6 mph - N/A   Unknown
8:15 AM 44.6 °F 43.1 °F 28.4 °F 53% 30.03 in 10.0 mi ESE 3.5 mph - N/A   Unknown
8:35 AM 44.6 °F - 28.4 °F 53% 30.05 in 10.0 mi Calm Calm - N/A   Unknown
8:55 AM 44.6 °F - 28.4 °F 53% 30.05 in 10.0 mi Calm Calm - N/A   Unknown
9:15 AM 46.4 °F 42.9 °F 28.4 °F 50% 30.06 in 10.0 mi SE 6.9 mph - N/A   Unknown
9:35 AM 46.4 °F 44.3 °F 26.6 °F 46% 30.07 in 10.0 mi East 4.6 mph - N/A   Unknown
9:55 AM 48.2 °F - 28.4 °F 46% 30.07 in 10.0 mi ESE 4.6 mph - N/A   Unknown
10:15 AM 48.2 °F - 28.4 °F 46% 30.07 in 10.0 mi East 5.8 mph - N/A   Unknown
10:35 AM 50.0 °F - 30.2 °F 47% 30.08 in 10.0 mi ENE 5.8 mph - N/A   Unknown
10:55 AM 51.8 °F - 32.0 °F 47% 30.08 in 10.0 mi East 4.6 mph - N/A   Unknown
11:15 AM 51.8 °F - 33.8 °F 50% 30.08 in 10.0 mi East 5.8 mph - N/A   Scattered Clouds
11:35 AM 51.8 °F - 33.8 °F 50% 30.08 in 10.0 mi East 3.5 mph - N/A   Scattered Clouds
11:55 AM 53.6 °F - 33.8 °F 47% 30.07 in 10.0 mi NE 5.8 mph - N/A   Scattered Clouds
12:15 PM 53.6 °F - 33.8 °F 47% 30.07 in 10.0 mi ESE 5.8 mph - N/A   Scattered Clouds
12:35 PM 55.4 °F - 35.6 °F 47% 30.07 in 10.0 mi ESE 5.8 mph - N/A   Scattered Clouds
12:55 PM 55.4 °F - 35.6 °F 47% 30.07 in 10.0 mi East 3.5 mph - N/A   Clear
1:15 PM 57.2 °F - 37.4 °F 48% 30.06 in 10.0 mi Calm Calm - N/A   Clear
1:35 PM 59.0 °F - 37.4 °F 45% 30.05 in 10.0 mi ENE 3.5 mph - N/A   Scattered Clouds
1:55 PM 60.8 °F - 37.4 °F 42% 30.04 in 10.0 mi SE 8.1 mph - N/A   Scattered Clouds
2:15 PM 62.6 °F - 37.4 °F 39% 30.03 in 10.0 mi East 5.8 mph - N/A   Clear
2:35 PM 62.6 °F - 37.4 °F 39% 30.02 in 10.0 mi East 9.2 mph - N/A   Clear
2:55 PM 62.6 °F - 37.4 °F 39% 30.00 in 10.0 mi East 6.9 mph - N/A   Clear
3:15 PM 64.4 °F - 37.4 °F 37% 30.00 in 10.0 mi East 4.6 mph - N/A   Scattered Clouds
3:35 PM 64.4 °F - 37.4 °F 37% 30.00 in 10.0 mi East 4.6 mph - N/A   Scattered Clouds
3:55 PM 64.4 °F - 37.4 °F 37% 29.99 in 10.0 mi Calm Calm - N/A   Scattered Clouds
4:15 PM 64.4 °F - 37.4 °F 37% 29.99 in 10.0 mi SSW 4.6 mph - N/A   Scattered Clouds
4:35 PM 62.6 °F - 35.6 °F 37% 29.99 in 10.0 mi SE 3.5 mph - N/A   Scattered Clouds
4:55 PM 62.6 °F - 37.4 °F 39% 29.99 in 10.0 mi ENE 5.8 mph - N/A   Scattered Clouds
5:15 PM 62.6 °F - 37.4 °F 39% 29.99 in 10.0 mi Calm Calm - N/A   Mostly Cloudy
5:35 PM 62.6 °F - 37.4 °F 39% 30.01 in 10.0 mi North 4.6 mph - N/A   Overcast
5:55 PM 62.6 °F - 37.4 °F 39% 30.01 in 10.0 mi NE 4.6 mph - N/A   Overcast
6:15 PM 60.8 °F - 42.8 °F 52% 30.00 in 10.0 mi NNE 8.1 mph - N/A   Overcast
6:35 PM 59.0 °F - 42.8 °F 55% 30.01 in 10.0 mi NE 9.2 mph 16.1 mph N/A   Mostly Cloudy
6:55 PM 59.0 °F - 41.0 °F 51% 30.01 in 10.0 mi NE 9.2 mph - N/A   Mostly Cloudy
7:15 PM 57.2 °F - 42.8 °F 59% 30.00 in 10.0 mi ENE 8.1 mph - N/A   Mostly Cloudy
7:35 PM 57.2 °F - 41.0 °F 55% 30.00 in 10.0 mi ENE 8.1 mph - N/A   Mostly Cloudy
7:55 PM 57.2 °F - 41.0 °F 55% 30.00 in 10.0 mi ENE 6.9 mph - N/A   Mostly Cloudy
8:15 PM 55.4 °F - 41.0 °F 58% 30.01 in 10.0 mi East 5.8 mph - N/A   Overcast
8:35 PM 55.4 °F - 42.8 °F 63% 30.01 in 10.0 mi East 5.8 mph - N/A   Overcast
8:55 PM 55.4 °F - 42.8 °F 63% 30.01 in 10.0 mi East 5.8 mph - N/A   Mostly Cloudy
9:15 PM 55.4 °F - 42.8 °F 63% 30.01 in 10.0 mi East 4.6 mph - N/A   Mostly Cloudy
9:35 PM 55.4 °F - 42.8 °F 63% 30.03 in 10.0 mi ENE 3.5 mph - N/A   Mostly Cloudy
9:55 PM 53.6 °F - 42.8 °F 67% 30.02 in 10.0 mi ENE 4.6 mph - N/A   Mostly Cloudy
10:15 PM 53.6 °F - 44.6 °F 72% 30.02 in 10.0 mi SE 4.6 mph - N/A   Mostly Cloudy
10:35 PM 53.6 °F - 44.6 °F 72% 30.03 in 10.0 mi ESE 4.6 mph - N/A   Mostly Cloudy
10:55 PM 53.6 °F - 42.8 °F 67% 30.03 in 10.0 mi ESE 5.8 mph - N/A   Scattered Clouds
11:15 PM 51.8 °F - 42.8 °F 71% 30.03 in 10.0 mi ESE 3.5 mph - N/A   Scattered Clouds
11:35 PM 51.8 °F - 42.8 °F 71% 30.03 in 10.0 mi East 3.5 mph - N/A   Scattered Clouds
11:55 PM 51.8 °F - 44.6 °F 76% 30.02 in 10.0 mi East 4.6 mph - N/A   Scattered Clouds